[[{"header":{"parameterUnit":"m.s-1","parameterCategory":1,"la1":30.2991,"la2":30.254,"lo1":-89.0895,"lo2":-89.0444,"dy":0.0017,"dx":0.0017,"nx":28,"ny":28,"refTime":"2025-01-02T03:00:00:Z","depth":0,"parameterNumber":2,"parameterNumberName":"U-component_of_WINDS"},"data":[0,0,0,0,0,0,0,0,0,0,0,0,0,0,0,0,0,0,0,0,0,0,0,0,0,0,0,0,0,0,0,0,0,0,0,0,0,0,0,0,0,0,0,0,0,0,0,0,0,0,0,0,0,0,0,0,0,0,-3.066,-3.0661,0,-3.0715,-3.0716,-3.0716,-3.0673,-3.0671,-3.0669,-3.0667,-3.072,-3.0723,-3.0726,0,0,0,0,0,0,0,0,0,0,0,0,0,-3.0514,-3.0517,-3.066,-3.0661,-3.0662,-3.0715,-3.0716,-3.0717,-3.0673,-3.0671,-3.0669,-3.0666,-3.0719,-3.0723,-3.0726,0,0,0,0,0,0,0,0,0,0,0,0,0,-3.0574,-3.0518,-3.066,-3.0647,-3.0646,-3.0715,-3.0716,-3.0717,-3.0674,-3.0671,-3.0668,-3.0665,-3.0718,-3.0722,-3.0727,-3.0811,0,0,-3.0741,-3.0743,0,0,0,0,0,0,0,0,-3.057,-3.0579,-3.0648,-3.0648,-3.0647,-3.0684,-3.0683,-3.0748,-3.0674,-3.0663,-3.0667,-3.0664,-3.071,-3.0715,-3.0732,-3.0814,-3.0816,-3.0742,-3.0745,-3.0747,-3.0748,0,0,0,0,0,0,0,-3.0566,-3.0577,-3.0682,-3.0649,-3.0648,-3.0636,-3.0642,-3.0696,-3.0701,-3.0664,-3.0661,-3.0668,-3.0709,-3.0727,-3.0733,-3.0817,-3.0742,-3.0746,-3.0749,-3.0751,-3.0968,-3.0971,0,0,0,0,0,0,-3.0564,-3.0573,-3.068,-3.0684,-3.0601,-3.0641,-3.0647,-3.0675,-3.0701,-3.0702,-3.067,-3.0666,-3.0721,-3.0727,-3.0734,-3.0832,-3.0747,-3.0751,-3.0754,-3.0965,-3.0969,-3.0972,0,0,0,0,0,0,-3.0561,-3.0574,-3.0678,-3.0628,-3.064,-3.0647,-3.0678,-3.0678,-3.0695,-3.0706,-3.0706,-3.0688,-3.0719,-3.0728,-3.0792,-3.0833,-3.0753,-3.0757,-3.0962,-3.0966,-3.097,-3.103,0,0,0,0,0,0,-3.0557,-3.0573,-3.0606,-3.0629,-3.0643,-3.0736,-3.0681,-3.0681,-3.0704,-3.0699,-3.0722,-3.0723,-3.0717,-3.0785,-3.0797,-3.0838,-3.0761,-3.0958,-3.0964,-3.0969,-3.1024,-3.1036,-3.1046,0,0,0,0,0,-3.0552,-3.0621,-3.0608,-3.0621,-3.0685,-3.0739,-3.0747,-3.0739,-3.0708,-3.074,-3.0746,-3.0722,-3.0828,-3.0792,-3.0805,-3.0848,-3.0955,-3.0962,-3.0968,-3.1019,-3.1034,-3.1046,0,0,0,0,0,0,-3.0602,-3.0624,-3.061,-3.0689,-3.0712,-3.0731,-3.0772,-3.0755,-3.0787,-3.0781,-3.0769,-3.0775,-3.0842,-3.0852,-3.0812,-3.093,-3.0886,-3.0896,-3.0921,-3.0934,-3.0945,-3.0939,-3.0765,0,0,0,0,0,-3.0623,-3.0666,-3.0682,-3.075,-3.0763,-3.0766,-3.0789,-3.0781,-3.0805,-3.0814,-3.0825,-3.0848,-3.0886,-3.0911,-3.0947,-3.1027,-3.1029,-3.1063,-3.1073,-3.1082,-3.1089,-3.1129,-3.1143,-3.0994,-3.0994,-3.0994,0,0,-3.0665,-3.0682,-3.071,-3.076,-3.0778,-3.0821,-3.0774,-3.0823,-3.0854,-3.0821,-3.0882,-3.0891,-3.0916,-3.0988,-3.102,-3.0998,-3.1132,-3.1091,-3.1098,-3.11,-3.1137,-3.1152,-3.1164,-3.0998,-3.0997,-3.0997,0,0,-3.0763,-3.0782,-3.0839,-3.0858,-3.0885,-3.0886,-3.09,-3.0922,-3.0927,-3.0988,-3.0964,-3.1001,-3.1067,-3.1084,-3.1102,-3.1207,-3.1185,-3.1219,-3.1274,-3.1313,-3.1324,-3.1335,-3.1369,-3.1381,-3.1227,-3.1227,-3.1227,0,-3.0811,-3.0877,-3.087,-3.092,-3.0941,-3.0915,-3.0971,-3.099,-3.1027,-3.1042,-3.1017,-3.1099,-3.1114,-3.1187,-3.1213,-3.1229,-3.1242,-3.1214,-3.1324,-3.1334,-3.1343,-3.1375,-3.1389,-3.1231,-3.123,-3.123,-3.1229,0,-3.0933,-3.0979,-3.1022,-3.1059,-3.1086,-3.1139,-3.1138,-3.1166,-3.1156,-3.1159,-3.1221,-3.1238,-3.1275,-3.1293,-3.1284,-3.1365,-3.135,-3.1326,-3.128,-3.1361,-3.1391,-3.1404,-3.1236,-3.1234,-3.1233,-3.1232,0,0,-3.1063,-3.1096,-3.1111,-3.1126,-3.1155,-3.1189,-3.124,-3.1278,-3.13,-3.1327,-3.1367,-3.1424,-3.14,-3.142,-3.1413,-3.1448,-3.1525,-3.1418,-3.1418,-3.1434,-3.1612,-3.1628,-3.1643,-3.1512,-3.1515,-3.1517,-3.1609,0,-3.116,-3.1249,-3.1244,-3.1327,-3.1368,-3.1343,-3.1387,-3.1408,-3.1413,-3.1447,-3.1452,-3.1491,-3.1459,-3.147,-3.1504,-3.1509,-3.156,-3.1503,-3.1547,-3.1549,-3.1538,-3.1659,-3.1677,-3.1763,-3.1621,-3.1623,-3.1624,0,-3.1285,-3.1316,-3.1403,-3.1423,-3.144,-3.148,-3.1512,-3.1546,-3.1569,-3.1569,-3.1592,-3.1579,-3.1628,-3.1584,-3.165,-3.1611,-3.1629,-3.1634,-3.1638,-3.1639,-3.1589,-3.166,-3.1791,-3.1802,-3.1643,-3.1642,-3.1641,0,-3.1366,-3.143,-3.149,-3.1504,-3.153,-3.1558,-3.157,-3.159,-3.1612,-3.1641,-3.1655,-3.1689,-3.1707,-3.1732,-3.1728,-3.1697,-3.1794,-3.1751,-3.1793,-3.1793,-3.1812,-3.181,-3.1944,-3.183,-3.183,-3.1829,-3.1829,0,-3.1473,-3.1526,-3.1526,-3.1563,-3.1621,-3.1615,-3.1672,-3.1681,-3.1699,-3.1735,-3.1717,-3.1751,-3.1744,-3.1778,-3.1775,-3.1828,-3.1837,-3.1837,-3.1835,-3.1837,-3.1836,-3.1846,-3.1838,-3.1833,-3.1832,-3.1831,-3.1831,0,-3.1572,-3.1575,-3.1638,-3.1658,-3.1664,-3.1706,-3.1721,-3.1755,-3.1758,-3.1804,-3.1815,-3.1819,-3.1858,-3.1857,-3.19,-3.1898,-3.1962,-3.1955,-3.1955,-3.1952,-3.1993,-3.1988,-3.2135,-3.2152,-3.203,-3.2031,-3.2033,0,-3.1638,-3.1679,-3.1703,-3.1726,-3.174,-3.1778,-3.18,-3.1796,-3.1819,-3.1848,-3.1877,-3.1914,-3.1943,-3.2005,-3.2011,-3.2044,-3.2035,-3.2084,-3.2039,-3.2039,-3.2031,-3.2028,-3.203,-3.2092,-3.2093,-3.2094,-3.2095,0,-3.1754,-3.1753,-3.1787,-3.1821,-3.1849,-3.1875,-3.1899,-3.1919,-3.1917,-3.1944,-3.1983,-3.2006,-3.205,-3.2086,-3.2117,-3.2128,-3.211,-3.211,-3.2121,-3.2121,-3.2118,-3.2117,-3.1975,-3.2106,-3.2105,-3.2104,-3.2103,-3.2103,-3.1836,-3.187,-3.1892,-3.193,-3.1948,-3.197,-3.2002,-3.201,-3.2043,-3.2079,-3.2074,-3.2117,-3.2137,-3.2177,-3.2191,-3.2223,-3.2205,-3.2222,-3.2225,-3.2229,-3.2232,-3.2116,-3.2229,-3.2229,-3.2228,-3.2228,-3.2228,0,-3.1948,-3.1961,-3.1996,-3.203,-3.206,-3.2043,-3.2069,-3.2093,-3.2132,-3.2153,-3.2182,-3.2225,-3.226,-3.2269,-3.2302,-3.2326,-3.2318,-3.2334,-3.233,-3.2332,-3.2247,-3.2233,-3.2339,-3.2339,-3.2339,-3.2339,-3.2339,-3.2339,-3.201,-3.2065,-3.2067,-3.213,-3.2142,-3.2185,-3.22,-3.2221,-3.2237,-3.2287,-3.2316,-3.2322,-3.2338,-3.2371,-3.2401,-3.2403,-3.2414,-3.2432,-3.2431,-3.235,-3.2339,-3.2328,-3.2314,-3.2436,-3.2436,-3.2512,-3.2513,-3.2514]},{"header":{"parameterUnit":"m.s-1","parameterCategory":1,"la1":30.2991,"la2":30.254,"lo1":-89.0895,"lo2":-89.0444,"dy":0.0017,"dx":0.0017,"nx":28,"ny":28,"refTime":"2025-01-02T03:00:00:Z","depth":0,"parameterNumber":3,"parameterNumberName":"V-component_of_WINDS"},"data":[0,0,0,0,0,0,0,0,0,0,0,0,0,0,0,0,0,0,0,0,0,0,0,0,0,0,0,0,0,0,0,0,0,0,0,0,0,0,0,0,0,0,0,0,0,0,0,0,0,0,0,0,0,0,0,0,0,0,1.1449,1.1451,0,1.1635,1.1637,1.1639,1.1682,1.1681,1.1679,1.1678,1.1865,1.1871,1.1877,0,0,0,0,0,0,0,0,0,0,0,0,0,1.1132,1.1137,1.1449,1.1452,1.1454,1.1634,1.1637,1.1639,1.1682,1.1681,1.1679,1.1678,1.1863,1.187,1.1877,0,0,0,0,0,0,0,0,0,0,0,0,0,1.1288,1.1139,1.1449,1.1497,1.1503,1.1634,1.1637,1.164,1.1683,1.1681,1.1679,1.1677,1.186,1.1869,1.1878,1.1973,0,0,1.1907,1.1911,0,0,0,0,0,0,0,0,1.1279,1.13,1.1488,1.1494,1.1501,1.1633,1.1593,1.1751,1.1683,1.1614,1.1678,1.1676,1.1789,1.1804,1.1843,1.1982,1.199,1.1907,1.1913,1.1917,1.192,0,0,0,0,0,0,0,1.1269,1.1292,1.1522,1.149,1.1499,1.1509,1.1529,1.1623,1.171,1.162,1.1624,1.1645,1.1792,1.1834,1.1848,1.1992,1.1907,1.1915,1.1921,1.1925,1.2221,1.2223,0,0,0,0,0,0,1.125,1.1283,1.1517,1.1528,1.1384,1.1516,1.1539,1.1593,1.1709,1.1725,1.1647,1.1647,1.1819,1.1837,1.1854,1.1975,1.1917,1.1925,1.1931,1.2219,1.2222,1.2224,0,0,0,0,0,0,1.1243,1.127,1.1509,1.1407,1.1438,1.1524,1.1584,1.1597,1.1639,1.1729,1.1745,1.1673,1.1818,1.1841,1.1944,1.1982,1.193,1.1938,1.2216,1.222,1.2223,1.2216,0,0,0,0,0,0,1.1233,1.1267,1.1304,1.1407,1.1443,1.1596,1.1586,1.1602,1.1655,1.1657,1.1758,1.1773,1.1819,1.193,1.1953,1.1994,1.1945,1.2213,1.2218,1.2222,1.2213,1.2218,1.2223,0,0,0,0,0,1.1222,1.1294,1.1306,1.1334,1.1491,1.1598,1.1619,1.1671,1.1658,1.1696,1.1754,1.177,1.1974,1.194,1.1967,1.201,1.2211,1.2216,1.2221,1.2211,1.2217,1.2223,0,0,0,0,0,0,1.1191,1.1308,1.1323,1.143,1.1504,1.1605,1.1655,1.1676,1.1754,1.1752,1.1812,1.1834,1.1934,1.1982,1.1943,1.2109,1.2092,1.2103,1.2075,1.2082,1.2087,1.2074,1.1953,0,0,0,0,0,1.1197,1.1275,1.1372,1.1458,1.1494,1.1568,1.1616,1.165,1.1729,1.176,1.1826,1.1901,1.1982,1.2034,1.2114,1.2219,1.2243,1.2263,1.2268,1.2272,1.2281,1.2343,1.2353,1.2241,1.2241,1.2241,0,0,1.121,1.1283,1.1328,1.1453,1.1515,1.1594,1.1594,1.1677,1.1737,1.1772,1.1875,1.1925,1.2013,1.2118,1.2168,1.2162,1.2317,1.2278,1.2281,1.2288,1.2349,1.236,1.2369,1.2245,1.2244,1.2244,0,0,1.1275,1.1337,1.1416,1.1478,1.1572,1.1621,1.164,1.1739,1.1775,1.1878,1.1907,1.1978,1.2116,1.2179,1.2228,1.2318,1.2336,1.2342,1.237,1.243,1.2438,1.2447,1.2481,1.2492,1.2351,1.2351,1.2351,0,1.1278,1.14,1.1454,1.1538,1.1592,1.1629,1.1711,1.1768,1.1882,1.1919,1.191,1.2086,1.2147,1.2269,1.2292,1.233,1.2354,1.2332,1.2433,1.2442,1.245,1.2484,1.2496,1.2351,1.2351,1.2351,1.2351,0,1.1401,1.1485,1.1538,1.165,1.171,1.1791,1.1858,1.1913,1.1941,1.1991,1.2097,1.2172,1.2269,1.23,1.2327,1.2426,1.242,1.2421,1.2405,1.246,1.2493,1.2506,1.2351,1.2351,1.2351,1.2351,0,0,1.1452,1.1594,1.1613,1.1665,1.1771,1.1837,1.192,1.2017,1.2063,1.214,1.2213,1.233,1.2333,1.2389,1.2424,1.2476,1.2546,1.2472,1.2475,1.2485,1.2662,1.2662,1.2676,1.2558,1.256,1.2563,1.2656,0,1.1531,1.1684,1.1736,1.1861,1.194,1.1977,1.205,1.2124,1.2173,1.2247,1.23,1.2383,1.2379,1.2414,1.2467,1.2526,1.2583,1.252,1.2627,1.263,1.2606,1.2693,1.2692,1.2777,1.2668,1.267,1.2672,0,1.1644,1.1726,1.186,1.1959,1.1994,1.2059,1.2153,1.2223,1.2307,1.2339,1.2403,1.2435,1.2524,1.2501,1.2626,1.2582,1.2628,1.2664,1.2669,1.2682,1.2656,1.2711,1.2804,1.2818,1.2692,1.2691,1.2689,0,1.1671,1.1814,1.1914,1.1957,1.2074,1.2119,1.217,1.2252,1.2307,1.2389,1.2425,1.2515,1.2564,1.2633,1.2688,1.2666,1.2809,1.279,1.2839,1.2837,1.2868,1.2866,1.2973,1.2894,1.2894,1.2894,1.2894,0,1.1756,1.1837,1.1928,1.1989,1.2081,1.214,1.223,1.2283,1.2356,1.2429,1.2465,1.2532,1.26,1.2676,1.2719,1.2817,1.2838,1.2867,1.2878,1.2866,1.2862,1.2898,1.2895,1.2897,1.2897,1.2896,1.2895,0,1.1801,1.1865,1.1977,1.208,1.2107,1.2171,1.2259,1.232,1.2371,1.2462,1.2487,1.2567,1.2658,1.272,1.2836,1.2866,1.2973,1.2981,1.2945,1.2951,1.2997,1.2993,1.3133,1.3155,1.3059,1.306,1.3061,0,1.1852,1.1916,1.2026,1.2078,1.213,1.2212,1.227,1.233,1.2388,1.249,1.2539,1.2633,1.2712,1.2857,1.2925,1.3015,1.3027,1.307,1.3041,1.3027,1.3031,1.3028,1.3035,1.3075,1.3076,1.3077,1.3077,0,1.1937,1.1966,1.2047,1.2141,1.2208,1.2284,1.236,1.2401,1.2474,1.2537,1.2633,1.2694,1.2815,1.2908,1.3005,1.3057,1.308,1.3086,1.3102,1.3091,1.3068,1.3084,1.296,1.3083,1.3082,1.3082,1.3081,1.3081,1.1989,1.2048,1.2136,1.2226,1.229,1.2361,1.2424,1.2484,1.2565,1.2669,1.2699,1.2798,1.2882,1.3015,1.3069,1.3147,1.3143,1.3166,1.3173,1.3178,1.318,1.3054,1.3165,1.3165,1.3164,1.3164,1.3164,0,1.2077,1.2136,1.2218,1.2325,1.2396,1.2412,1.2498,1.2556,1.2644,1.2721,1.2799,1.2909,1.3,1.3076,1.3171,1.3219,1.3233,1.3242,1.324,1.3253,1.3177,1.3154,1.323,1.323,1.323,1.323,1.323,1.323,1.2131,1.2234,1.2273,1.2408,1.2466,1.2565,1.2613,1.2679,1.2741,1.2863,1.294,1.2989,1.3067,1.3167,1.3252,1.3272,1.3306,1.3315,1.3337,1.3265,1.3258,1.3251,1.323,1.3321,1.3321,1.3407,1.3408,1.3408]}]]